Cloud_Cover
0 0 0 0 0 0 0 0 0 0 0 0 0 0 0 0 0 8 20 24 24 32 36 36 44 44 44 44 48 44 36 44 44 44 44 36 32 24 24 24 20 20 12 8 0 8 20 44 56 56 56 68 68 64 44 36 32 32 36 44 76 80 76 56 48 44 48 44 64
0 0 0 0 0 0 0 0 0 0 0 0 0 0 0 0 0 0 0 8 20 24 24 32 32 36 36 36 36 36 36 36 44 48 48 36 36 32 24 20 20 12 12 12 8 0 0 0 8 20 24 36 48 64 64 44 36 32 24 24 44 68 88 88 76 68 64 68 64
0 0 0 0 0 0 0 0 0 0 0 0 0 0 0 0 0 0 0 0 0 8 12 24 24 24 32 32 32 24 24 24 24 36 44 48 36 32 32 24 24 20 20 20 12 12 12 12 24 20 12 12 24 36 48 44 44 36 32 20 44 76 88 80 76 80 88 76 80
0 0 0 0 0 0 0 0 0 0 8 20 12 8 8 0 0 0 0 0 0 0 0 12 20 20 20 20 20 20 20 20 20 24 32 36 44 44 36 20 20 24 20 12 20 20 20 32 12 20 32 36 36 24 24 32 32 36 32 24 24 56 92 92 80 76 76 56 64
0 0 0 0 0 0 0 0 0 0 8 24 20 20 12 8 8 8 0 0 0 0 0 0 0 8 8 8 8 12 12 12 12 12 20 20 32 36 36 36 32 24 20 20 8 12 12 12 20 20 20 32 44 48 56 56 32 24 24 20 20 24 48 92 92 92 88 64 44
0 8 0 0 0 0 0 0 0 0 0 0 12 24 24 20 12 8 12 12 12 8 0 0 0 0 0 0 0 8 8 8 8 8 8 8 12 20 24 36 32 32 24 20 20 20 20 24 12 12 20 32 24 32 36 44 48 32 20 20 12 12 36 92 80 80 80 64 76
0 0 8 12 8 8 0 0 0 0 0 0 0 8 24 32 24 20 12 8 8 8 8 0 12 8 0 0 0 0 0 8 0 0 0 0 0 0 8 12 20 20 20 20 20 24 24 20 20 20 20 24 36 48 44 24 32 32 24 24 20 12 8 12 68 92 80 64 56
0 0 8 32 32 32 24 24 20 8 0 0 0 0 0 0 24 32 24 12 8 0 0 0 8 12 20 20 8 0 0 0 0 0 0 0 0 0 0 0 8 8 12 20 20 20 20 20 20 20 20 20 20 32 36 48 44 32 24 24 20 20 12 12 32 68 92 92 64
0 0 12 56 48 48 48 48 44 32 12 8 0 0 0 0 12 24 24 20 12 12 8 8 0 8 12 24 24 20 12 0 0 0 0 0 0 0 0 0 0 0 8 8 12 12 12 12 12 12 20 20 24 20 20 32 32 32 24 24 20 20 12 12 12 48 88 88 76
0 0 0 0 0 8 20 44 36 24 12 8 0 0 0 0 0 0 0 0 8 8 0 0 0 0 0 8 20 24 24 8 0 0 0 0 0 0 0 0 0 0 0 0 0 0 8 12 12 8 8 12 24 24 24 32 32 24 20 20 20 12 12 12 20 56 88 88 88
0 0 0 0 0 0 0 0 0 0 0 0 0 0 0 0 0 0 0 0 0 0 0 0 0 0 0 0 0 8 12 20 12 8 0 0 0 0 0 0 0 0 0 0 0 0 0 8 0 8 8 8 12 20 20 24 24 20 20 20 12 12 20 24 76 88 88 88 80
0 0 0 0 0 0 0 0 0 0 0 0 0 8 12 20 20 12 8 12 8 0 0 0 0 0 0 0 0 0 0 8 8 0 0 0 0 0 0 0 0 0 0 0 0 0 0 0 0 0 0 8 8 8 12 20 20 20 20 20 20 20 20 20 64 76 80 88 88
0 0 0 0 0 0 0 0 0 0 0 0 0 0 0 20 24 24 20 24 20 12 8 0 0 0 0 0 0 0 0 0 0 0 0 0 0 0 0 0 0 0 0 0 0 0 0 0 0 0 0 0 0 0 0 0 0 8 12 20 20 24 24 24 36 48 56 80 80
0 0 0 0 0 0 0 0 0 0 0 0 0 0 0 0 8 12 20 20 12 12 8 0 0 0 0 0 0 0 0 0 0 0 0 0 0 0 0 0 0 0 0 0 0 0 0 0 0 0 0 0 0 0 0 0 0 0 0 8 12 24 24 20 24 44 64 64 56
0 0 0 0 0 0 0 0 0 0 0 0 0 0 0 0 0 0 0 0 0 0 0 0 0 0 0 0 0 0 0 0 0 0 0 0 0 0 0 0 0 0 0 0 0 0 0 0 0 0 0 0 0 8 12 8 20 20 8 0 0 12 20 20 20 20 36 88 44
0 0 0 0 0 0 0 0 0 0 0 0 0 0 0 0 0 0 0 0 0 0 0 0 0 0 0 0 0 0 0 0 0 0 0 0 0 0 0 0 0 0 0 0 0 0 0 0 0 8 20 12 12 24 44 48 36 32 24 12 0 0 8 12 12 12 32 76 64
0 0 0 0 0 0 0 0 0 0 0 0 0 0 0 0 0 0 0 0 0 0 0 0 0 0 0 0 0 0 0 0 0 0 0 0 0 0 0 0 0 0 0 0 0 0 0 0 0 32 64 64 44 44 48 68 44 32 24 24 8 0 0 0 0 8 24 44 76
0 0 0 0 0 0 0 0 0 0 0 0 0 0 0 0 0 0 0 0 0 0 0 0 0 0 0 0 0 0 0 0 0 0 0 0 0 0 0 0 0 0 0 0 0 0 0 0 12 44 76 88 76 76 76 76 48 32 32 32 12 8 0 0 0 8 24 56 64
0 0 0 0 0 0 0 0 0 0 0 0 0 0 0 0 0 0 0 0 0 0 0 0 0 0 0 0 0 0 0 0 0 0 0 0 0 0 0 0 0 0 0 0 0 8 20 32 56 68 68 68 80 80 68 76 56 56 56 32 20 8 0 0 0 0 12 56 44
0 0 0 0 0 0 0 0 0 0 0 0 0 0 0 0 0 0 0 0 0 0 0 0 0 0 0 0 0 0 0 0 0 0 0 12 0 0 0 0 0 0 0 8 12 36 56 44 76 88 80 76 80 80 76 76 76 68 56 36 24 20 20 48 12 0 20 64 32
0 0 0 0 0 0 0 0 0 0 0 0 0 0 0 0 0 0 0 0 0 0 0 0 0 0 0 0 0 0 0 8 12 32 44 48 32 20 8 20 32 36 44 36 36 56 80 68 80 88 88 88 88 88 88 88 88 76 64 68 44 20 24 68 36 32 44 88 32
0 0 0 0 0 0 0 0 0 0 0 0 0 0 0 0 0 0 0 0 0 0 0 0 0 0 0 0 0 24 48 36 44 44 48 80 76 48 36 68 76 80 80 76 76 80 88 88 88 76 76 88 88 88 88 88 88 80 76 68 48 32 32 64 68 76 76 80 68
0 0 0 0 0 0 0 0 0 0 0 0 0 0 0 0 0 0 0 0 0 0 0 0 0 0 0 0 12 36 48 36 32 20 24 64 80 80 76 88 88 88 88 88 88 88 88 88 88 80 80 88 88 88 88 88 88 88 88 80 76 76 76 80 76 76 76 44 44
0 0 0 0 0 0 0 0 0 0 0 0 0 0 0 0 0 0 0 0 0 0 0 0 0 0 0 0 32 48 64 68 56 32 24 36 56 76 88 88 88 88 80 68 80 88 88 88 88 88 88 88 88 88 88 88 88 88 88 88 88 88 80 64 76 80 80 76 76
0 0 0 0 0 0 0 0 0 0 0 0 0 0 0 0 0 0 0 0 0 0 0 0 0 0 0 0 8 32 64 88 76 68 76 76 80 68 64 88 88 76 68 80 88 88 88 88 88 88 88 88 88 88 88 88 88 88 88 88 88 88 76 36 76 68 64 88 88
0 0 0 0 0 0 0 0 0 0 0 0 0 0 0 0 0 0 0 0 0 0 0 0 0 0 0 0 56 76 76 88 88 88 80 64 80 80 80 88 68 76 88 88 88 88 88 88 88 88 88 88 88 88 88 88 88 88 88 88 88 88 80 76 80 64 48 88 88
0 0 0 0 0 0 0 0 0 0 0 0 0 0 0 0 0 0 0 0 0 0 0 0 0 8 32 64 80 88 80 88 88 88 88 80 80 88 88 88 80 88 88 88 88 88 88 88 88 88 88 88 88 88 88 88 88 88 88 88 88 88 88 88 88 68 56 88 88
0 0 0 0 0 0 0 0 0 0 0 0 0 0 0 0 0 0 0 0 0 8 24 24 32 56 80 80 80 88 88 88 88 88 88 88 88 88 88 88 88 88 88 88 88 88 88 88 88 88 88 88 88 88 88 88 88 88 88 88 88 88 88 88 88 88 88 88 88
0 0 0 0 0 0 0 0 0 0 0 0 0 0 0 0 0 0 0 12 64 80 80 80 80 80 80 80 80 80 80 88 88 88 88 88 88 88 88 88 88 88 88 88 88 88 88 88 88 88 88 88 88 88 88 88 88 88 88 88 88 88 88 88 56 68 88 88 88
0 0 0 0 0 0 0 0 0 0 0 0 0 0 0 0 0 32 68 80 80 80 80 80 64 68 80 80 80 80 76 80 80 80 80 80 80 80 80 88 88 88 88 88 88 88 88 88 88 88 88 88 88 88 88 88 88 88 88 88 88 88 88 88 88 88 88 88 88
0 0 0 0 0 0 0 0 0 0 0 0 12 32 36 32 68 80 80 80 80 80 80 68 56 44 36 36 68 80 80 80 80 80 80 80 80 68 64 80 80 76 68 88 88 88 88 88 88 88 88 88 88 88 88 88 88 88 88 88 88 88 88 92 88 88 88 88 88
0 0 0 0 0 0 0 0 0 8 12 36 68 80 80 80 56 64 80 80 68 76 80 80 80 80 80 80 80 80 80 80 80 80 80 80 80 80 80 80 80 80 80 80 80 80 80 80 80 80 88 88 88 88 88 88 88 88 88 88 88 88 92 92 92 88 88 88 88
0 0 0 0 0 0 0 0 24 48 76 80 80 80 80 80 64 68 80 80 80 80 80 80 80 80 80 80 80 80 80 80 80 80 80 80 80 80 80 80 80 80 80 80 80 80 80 80 80 80 80 88 88 88 88 80 88 88 88 88 88 88 88 88 88 88 88 88 88
0 0 0 0 0 8 12 20 12 32 56 80 80 80 80 88 80 80 80 80 80 80 80 80 80 80 80 76 80 80 80 68 68 76 76 80 80 80 80 80 80 80 80 88 80 88 88 88 88 88 88 88 88 88 88 88 88 88 88 80 88 80 80 88 88 88 88 88 88
0 0 0 0 0 24 48 44 48 64 80 80 88 88 88 88 88 88 88 88 88 80 76 80 80 80 76 64 68 76 68 36 36 44 56 76 80 80 80 80 80 80 88 88 88 88 88 88 88 88 88 88 88 88 88 88 88 88 88 88 80 76 68 80 88 80 80 88 80
0 0 0 0 20 32 44 64 76 80 80 80 88 88 88 88 88 88 88 88 88 76 64 64 80 80 76 56 64 76 80 80 80 68 48 56 76 80 80 76 68 76 88 88 88 92 92 92 92 92 92 92 88 88 88 88 88 88 88 88 80 76 68 88 88 80 76 88 76
0 0 8 32 48 64 68 80 80 88 88 80 88 92 92 92 88 88 88 92 88 80 68 64 80 88 88 80 80 88 88 92 92 80 68 64 80 80 76 76 68 68 76 92 92 92 92 92 92 92 92 92 88 88 92 88 88 88 88 88 80 80 88 92 88 88 88 80 88
0 8 24 68 76 64 64 80 88 88 88 92 92 92 92 92 92 88 80 88 88 76 64 68 80 88 88 88 88 88 88 88 92 88 88 80 88 92 88 80 80 80 88 92 92 92 92 88 92 92 92 92 88 88 88 88 80 88 88 80 76 80 88 92 92 88 80 76 80
0 20 48 80 80 80 80 88 88 88 88 88 88 88 92 92 92 88 80 80 88 88 80 80 88 88 88 88 88 88 80 80 88 92 92 80 88 92 92 92 88 88 88 92 88 92 92 88 92 92 92 92 88 88 88 88 76 76 76 68 68 76 80 80 88 88 88 88 88
8 32 64 80 80 76 80 80 88 88 88 88 88 88 88 88 88 88 80 88 88 88 88 88 80 80 80 88 88 88 80 88 92 92 92 88 88 92 92 92 88 88 92 92 92 92 92 92 92 92 92 92 92 92 88 88 88 80 68 56 64 68 64 64 80 88 88 92 92
36 56 68 80 76 80 80 80 80 80 80 88 88 88 88 88 88 80 80 88 88 88 88 92 88 88 88 92 88 88 88 92 92 92 92 92 88 88 92 92 88 80 80 88 92 92 92 92 92 92 92 92 92 92 92 92 92 88 76 56 68 76 68 68 80 88 88 92 92